Regional Weather Roundup
Issued by NWS

Home | Current Version | Previous Version | Graphics & Text | Print | Product List | Glossary On
Versions: 1 2 3 4 5 6 7 8 9 10 11 12 13 14 15 16 17 18 19 20 21 22 23 24 25 26 27 28 29 30 31 32 33 34 35 36 37 38 39 40 41 42 43 44 45 46 47 48 49 50
986
ASUS44 KMEG 241910
RWRTN
TENNESSEE HOURLY STATE WEATHER ROUNDUP
NATIONAL WEATHER SERVICE MEMPHIS TN
200 PM CDT MON JUL 24 2017

TNZ002-004-019-021-049-052-054-088>092-242000-
WEST TENNESSEE

CITY           SKY/WX    TMP DP  RH WIND       PRES   REMARKS
MEMPHIS INTL   CLOUDY    88  75  65 VRB6      29.97S HX  97
NWS MEMPHIS      N/A     89 N/A N/A MISG        N/A
JACKSON        CLOUDY    87  75  67 VRB3      29.97S HX  96
SOMERVILLE       N/A     90  73  58 VRB6G12   29.96F HX  98
COVINGTON      MOSUNNY   88  75  66 SW5       29.96S HX  97
UNION CITY     MOSUNNY   86  77  74 SW5       29.95S HX  97
BOLIVAR        MOSUNNY   88  73  62 SW6G13    29.96F HX  96
PARIS          SUNNY     86  75  70 VRB3      29.96S HX  95
HUNTINGDON     SUNNY     86  73  66 SE5       29.96S HX  93
SELMER         SUNNY     88  75  66 CALM      29.97S HX  97
SAVANNAH       MOSUNNY   88  77  70 CALM      29.96S HX 100
$$

TNZ008-025-027-028-033-062-065-066-242000-
NORTH MIDDLE TENNESSEE

CITY           SKY/WX    TMP DP  RH WIND       PRES   REMARKS
NASHVILLE      CLOUDY    89  72  56 CALM      29.97F HX  96
PORTLAND       MOSUNNY   88  73  62 VRB6      29.97S HX  96
CLARKSVILLE    PTSUNNY   88  74  63 VRB6      29.96S HX  96
SMYRNA         PTSUNNY   88  74  63 SE6       29.98F HX  96
COOKEVILLE     SUNNY     84  72  65 CALM      29.99S
GALLATIN       MOSUNNY   88  73  62 VRB3      29.99S HX  96
CROSSVILLE     MOSUNNY   82  65  56 CALM      30.05S
$$

TNZ061-075-076-078-094-096-097-242000-
SOUTH MIDDLE TENNESSEE

CITY           SKY/WX    TMP DP  RH WIND       PRES   REMARKS
FAYETTEVILLE   PTSUNNY   86  73  66 VRB5      29.98F HX  93
TULLAHOMA      SUNNY     88  68  51 CALM      30.00F HX  91
WINCHESTER     SUNNY     90  70  51 CALM      29.99S HX  95
MCMINNVILLE    SUNNY     88  73  62 CALM      30.00S HX  96
COLUMBIA       SUNNY     88  73  62 CALM      29.95F HX  96
SHELBYVILLE    SUNNY     88  72  58 SW5       29.98S HX  94
$$

TNZ017-018-042-046-047-242000-
NORTHEAST TENNESSEE

CITY           SKY/WX    TMP DP  RH WIND       PRES   REMARKS
TRI CITIES     PTSUNNY   87  66  49 W9        30.01S
ELIZABETHTON   MOSUNNY   86  66  51 SW8       30.01S
$$

TNZ012-013-036-069-073-074-242000-
CENTRAL EAST TENNESSEE

CITY           SKY/WX    TMP DP  RH WIND       PRES   REMARKS
KNOXVILLE      PTSUNNY   86  67  52 VRB5      29.98F
OAK RIDGE      MOSUNNY   89  67  47 CALM      30.00S HX  92
DOWNTOWN KNOXV SUNNY     88  68  51 CALM      29.97F HX  91
GATLINBURG       N/A     90  66  45 CALM      29.98S HX  92
MORRISTOWN     SUNNY     84  68  58 W8        30.00S
JACKSBORO      MOSUNNY   86  72  62 CALM      30.02F HX  92
$$

TNZ083-085-099-242000-
SOUTHEAST TENNESSEE

CITY           SKY/WX    TMP DP  RH WIND       PRES   REMARKS
CHATTANOOGA    PTSUNNY   89  69  51 CALM      29.97F HX  93
DAYTON         CLEAR     90  73  58 CALM      29.96F HX  98
$$

SKY/WX REPORTED AS FAIR MEANS FEW OR NO CLOUDS BELOW
12 THOUSAND FEET.





USA.gov is the U.S. government's official web portal to all federal, state and local government web resources and services.